sat.trackr.live / text

‹ back to catalog

STARLINK-36107

NORAD 66979 · 2025-288W

PAYLOAD ACTIVE UNKNOWN

§ Identity

Operator
Country
US
Launch date
2025-12-08
Launch site
AFETR
Launch vehicle
Mass (kg)
RCS (m²)

Purposes: comms

External: N2YO · Heavens-Above · Gunter

§ Orbital elements

Epoch: 2026-09-20T08:24:54.930528Z

Period
94.27 min
Inclination
43.0039°
Eccentricity
0.0001743
Mean motion
15.27590554 rev/d
Perigee alt
481.8 km
Apogee alt
484.2 km
Semi-major
6,861.2 km
B*
5.8197e-4
RAAN
4.5056°
Arg perigee
276.3823°
Mean anomaly
83.6830°
Rev number
4,505

§ Raw data

STARLINK-361071 66979U 25288W   26263.35063577  .00015792  00000+0  58197-3 0  99932 66979  43.0039   4.5056 0001743 276.3823  83.6830 15.27590554 45059

JSON: /api/v1/satellites/66979 · /tle

For live sub-satellite position, see the globe view (requires WebGL).

§ Visibility from observer

Set your observer location to see the next 7 days of passes ≥ 10°. The values pass through the URL so the page stays shareable.

No JS? Fill the form by hand. The geolocation button needs JavaScript.